Weather in Beloyarovo

Russia / Amur Oblast     51°35′33″N   128°46′36″E
temp.,
°C
wind,
m/s
gust,
m/s
humid.,
%
clouds,
%
prec.,
mm/h
press.,
hPa
HPBL,
m
4 march, thu
thu400:00−8ssw4796100 1.5 1010300
03:00−9ssw3596100 3.3 1009203
06:00−14n479499 0.6 1010195
09:00−16n469497 0.6 1012194
12:00−12n3391100 0.1 1012310
15:00−11nnw5694100 0.8 1011482
18:00−14nnw61090100 0.6 1013512
21:00−17nnw51288100 0.6 1017371
5 march, fri
fri500:00−22nw5118753 0.0 1020278
03:00−25nw5137927 0.0 1023381
06:00−28nw513800 0.0 1025353
09:00−25nw612780 0.0 1027588
12:00−21nw610750 0.0 10281018
15:00−19nnw7117532 0.0 10291331
18:00−21nw3584100 0.0 103197
21:00−24wnw448567 0.0 103368
6 march, sat
sat600:00−26wnw34890 0.0 103441
03:00−27w33870 0.0 103520
06:00−28w33880 0.0 103519
09:00−24w35930 0.0 1035138
12:00−19wsw248431 0.0 1033478
15:00−14wsw357665 0.0 1032957
18:00−18wsw1284100 0.0 103120
21:00−20ssw239699 0.0 103126
7 march, sun
sun700:00−22sse2294100 0.0 103020
03:00−23sse239477 0.0 102920
06:00−21se2394100 0.0 102837
09:00−18ese1292100 0.0 1028160
12:00−15ne2288100 0.0 1028301
15:00−13n1283100 0.0 1028462
18:00−16sw229195 0.0 102820
21:00−19sw229374 0.0 102920
8 march, mon
mon800:00−19ssw3398100 0.0 102930
03:00−20ssw3310074 0.0 102821
06:00−20s349718 0.0 102761
09:00−15s599249 0.0 1025320
12:00−10ssw5890100 0.0 1022531
15:00−7ssw4788100 0.1 1019568
18:00−8ssw1292100 0.0 101821
21:00−8sw1289100 0.0 101821